Wind_Speed
58 52 49 56 61 63 63 66 64 63 60 66 66 64 64 62 66 52 48 49 50 44 42 45 44 42 41 42 44 39 33 30 28 23 16 10 12 11 12 16 19 24 25 19
58 53 67 69 65 63 61 65 67 62 57 63 61 57 55 52 44 43 43 43 41 38 39 40 37 35 37 41 37 30 27 28 22 14 10 11 12 15 17 15 18 18 19 20
57 67 68 66 66 69 63 60 59 57 59 59 56 54 49 39 36 38 37 41 36 35 33 34 33 33 37 36 28 25 25 25 16 7 9 7 8 11 16 16 19 17 20 19
67 70 67 66 64 63 62 58 54 53 55 57 58 40 35 31 33 32 35 34 36 31 33 34 33 35 35 29 23 24 24 19 9 5 9 5 7 9 12 16 21 21 15 19
67 71 72 66 61 62 57 62 55 56 56 58 48 31 27 23 24 27 28 30 33 32 31 31 33 32 27 22 20 22 22 14 6 4 7 9 9 9 13 15 17 21 17 16
70 70 68 64 64 63 62 62 59 58 51 39 31 26 22 23 24 26 28 29 29 30 30 31 30 25 19 19 19 20 17 11 2 1 10 14 15 14 11 16 20 22 20 12
70 67 67 68 67 63 65 61 57 45 34 28 28 20 20 27 29 32 33 31 26 28 29 26 25 18 17 17 19 18 13 7 2 4 14 15 13 12 14 18 21 20 14 14
70 69 66 66 63 61 56 50 37 33 29 25 20 17 19 27 31 33 34 32 29 27 26 24 21 16 14 17 17 15 10 5 6 8 14 16 14 15 20 16 23 26 14 11
69 63 63 59 51 48 39 30 34 29 28 20 19 17 19 25 30 34 35 33 28 26 27 24 17 14 12 17 16 12 9 2 7 10 15 14 13 11 18 19 20 22 19 12
56 55 52 50 48 40 32 33 29 29 26 18 19 21 22 29 30 32 32 32 29 27 26 24 13 11 13 18 14 9 5 0 8 11 18 12 19 15 11 16 24 22 13 8
55 55 48 49 33 32 32 31 30 31 21 22 18 21 25 26 27 32 33 35 31 28 25 20 12 10 13 18 12 8 4 4 7 11 14 14 15 11 10 12 21 25 16 6
56 52 54 40 36 40 42 36 32 23 22 20 20 25 25 29 28 31 32 33 31 27 26 23 13 10 13 17 10 8 4 5 7 13 15 17 11 11 11 13 16 22 20 11
59 59 52 49 44 43 35 34 27 27 26 22 26 26 23 28 27 28 28 31 33 26 26 26 16 9 12 14 8 7 5 4 6 16 15 14 10 13 15 13 10 14 25 16
69 63 51 48 45 42 41 33 33 34 30 26 28 29 24 26 27 28 28 29 32 29 26 25 17 9 11 13 10 7 6 2 4 18 18 16 14 15 17 13 8 9 17 23
75 68 50 50 51 46 45 43 36 33 27 23 33 29 28 26 27 27 28 27 30 31 26 24 19 13 11 13 13 8 6 2 4 13 20 15 16 18 20 11 13 14 13 19
84 70 60 55 52 47 45 42 40 36 29 32 35 29 29 28 30 23 28 28 29 31 27 23 20 16 11 12 11 10 7 3 2 7 23 21 18 18 20 16 8 6 14 20
83 72 67 58 55 53 46 44 41 38 37 34 33 34 28 29 33 31 28 26 28 30 27 21 22 21 14 13 8 10 8 6 2 4 11 24 22 15 19 17 10 6 6 12
82 75 75 66 66 56 46 45 44 42 40 37 35 36 31 30 30 33 28 26 26 28 28 29 20 24 19 14 9 9 8 7 2 1 5 21 24 21 15 15 14 12 7 2
82 75 80 74 66 61 57 51 52 49 44 40 40 38 35 29 30 35 28 26 27 24 27 30 27 20 20 16 9 6 9 7 5 1 3 12 25 22 23 18 19 19 17 11
85 81 85 82 75 66 60 59 57 53 48 44 44 40 40 33 31 38 28 27 27 24 25 27 30 20 21 18 17 9 6 8 6 3 2 4 12 19 20 21 20 20 18 15
91 89 90 85 80 77 70 65 64 55 51 51 46 45 45 35 35 37 30 33 25 27 25 26 29 25 20 20 19 19 8 5 8 6 3 3 7 10 13 12 14 20 17 17
99 93 93 89 87 84 74 72 69 61 60 55 50 48 48 39 40 38 34 34 28 26 25 23 24 25 25 22 20 18 16 9 6 8 7 5 4 9 10 9 10 12 14 15
101 101 97 92 88 85 81 77 79 70 67 62 56 50 50 46 43 40 39 36 30 28 25 23 23 26 26 23 19 20 15 15 9 6 8 9 9 7 7 10 13 12 12 12
105 97 94 104 97 93 85 80 79 74 70 66 59 55 54 52 48 45 43 38 33 29 27 24 23 22 28 25 20 21 18 15 15 11 8 10 10 11 10 10 10 9 13 15
109 111 108 89 99 96 89 85 84 81 73 69 65 59 61 60 52 47 43 40 35 33 29 26 25 22 22 25 25 22 21 20 15 16 15 13 12 10 11 13 11 11 11 12
124 110 105 99 101 97 92 91 84 82 76 70 67 64 64 63 57 50 44 43 39 37 32 28 27 25 24 24 23 24 24 24 22 19 19 19 17 15 13 10 9 8 9 11
Wind_Direction
256 260 259 248 252 254 257 262 266 275 290 293 300 299 304 306 302 307 303 301 300 298 292 296 303 309 313 312 312 314 310 307 316 316 308 344 348 339 330 346 3 6 5 359
249 245 253 256 260 267 269 272 279 286 293 294 298 302 305 300 306 299 298 304 305 301 299 299 304 310 313 313 313 313 307 311 322 307 335 342 359 356 346 342 337 358 4 7
247 249 251 252 257 263 269 277 284 287 289 293 297 300 299 300 298 294 298 302 300 304 302 301 307 311 317 314 318 309 313 316 321 315 0 7 9 348 352 346 330 335 349 13
242 245 251 255 262 269 276 284 285 288 289 289 295 293 291 297 296 306 303 302 302 309 309 303 306 309 318 313 314 310 317 321 325 3 20 0 25 345 350 343 335 338 353 13
250 250 253 261 267 269 275 276 281 281 285 289 288 281 292 308 315 317 315 315 310 316 313 306 306 312 316 314 314 316 319 320 324 15 39 40 47 32 16 352 1 348 351 0
251 253 257 261 268 270 273 275 275 284 284 278 273 280 301 327 325 327 326 331 323 320 309 308 310 316 318 315 318 322 319 317 277 52 73 74 64 44 24 33 24 354 344 357
254 254 255 259 263 266 262 270 277 278 264 263 271 280 320 320 330 337 336 337 327 321 314 312 318 319 322 324 323 329 322 314 200 110 94 92 83 64 58 42 23 11 8 9
255 259 266 264 259 259 264 269 268 251 253 260 267 297 316 319 332 332 338 344 337 329 317 321 319 324 332 329 331 335 321 299 161 120 108 115 85 63 46 42 23 25 17 19
251 252 252 253 252 254 254 245 239 245 251 256 268 293 311 310 326 335 338 342 337 328 327 321 316 329 341 336 336 336 319 284 152 123 118 122 94 78 46 36 26 17 24 17
243 244 248 245 243 245 231 230 239 244 245 254 275 299 311 316 329 332 338 346 343 336 332 327 325 338 342 341 338 331 330 84 172 137 127 115 104 90 59 34 29 25 25 44
237 235 241 239 239 233 230 235 235 238 244 252 279 288 306 312 325 336 342 348 342 339 331 324 319 336 345 343 337 335 357 74 152 148 139 140 133 73 53 26 29 20 23 35
240 236 235 236 227 224 224 223 231 237 248 260 275 283 299 308 327 334 338 346 345 338 334 319 319 328 341 344 332 0 352 67 158 145 151 160 154 85 98 36 23 29 40 71
237 236 231 230 224 224 223 222 221 238 251 259 272 279 295 304 315 331 338 343 346 341 334 338 312 331 337 342 330 3 10 47 139 159 158 171 135 104 105 78 38 40 35 45
234 236 226 231 235 228 227 211 225 232 239 252 270 281 293 304 314 325 337 340 344 342 334 329 311 320 334 340 336 348 6 0 123 171 159 165 153 140 129 96 68 45 49 44
230 236 232 230 233 227 222 215 222 232 239 258 264 279 286 302 309 320 327 338 337 344 335 327 316 311 328 335 343 343 350 347 163 178 178 173 173 148 144 129 91 72 69 46
226 228 228 228 230 225 222 221 225 233 238 250 261 275 284 297 300 310 320 338 335 338 338 331 329 314 315 323 345 335 352 7 184 167 192 186 181 181 169 157 134 91 74 77
222 226 229 229 231 229 220 222 229 230 237 247 262 268 283 292 297 310 316 332 332 336 340 330 330 320 312 320 337 336 346 2 133 177 184 194 191 189 179 189 204 172 129 96
228 226 228 227 230 228 223 223 230 235 238 246 256 269 274 281 292 299 312 323 327 332 336 335 326 322 308 318 336 339 335 356 23 104 155 193 194 202 196 198 198 200 192 165
225 223 232 232 232 233 231 229 233 240 242 246 252 259 267 277 285 288 301 313 316 327 328 330 331 322 305 309 314 335 331 334 354 43 139 185 204 204 208 216 214 215 234 240
222 223 228 231 232 233 234 237 237 237 243 243 251 259 266 271 279 280 294 297 304 317 323 327 330 311 306 297 299 304 328 315 317 329 234 193 188 209 223 234 235 225 230 240
217 220 227 229 232 233 233 235 239 238 243 245 247 253 262 267 271 276 284 286 299 305 316 322 328 311 301 293 293 292 298 299 292 295 294 264 235 208 211 224 222 221 224 230
216 218 225 227 228 232 232 236 239 239 242 245 247 252 259 265 268 274 278 279 291 296 307 316 323 313 298 294 296 291 293 288 276 278 277 271 265 248 228 209 215 224 228 227
222 217 217 227 228 229 231 231 236 236 241 245 248 252 257 261 265 271 274 275 281 289 297 308 313 314 299 286 293 297 277 288 273 257 276 268 266 256 255 242 237 238 231 230
220 220 222 219 225 228 227 231 238 239 240 244 245 249 254 258 259 263 268 268 274 280 289 298 307 309 304 292 284 285 271 273 285 279 263 263 258 258 250 253 256 250 245 239
219 220 220 221 227 230 228 227 231 235 236 241 244 247 251 253 254 257 261 263 267 273 282 290 296 301 306 297 282 279 270 264 269 275 273 271 261 254 254 252 253 252 246 246
221 219 220 219 225 229 230 230 231 234 234 236 242 243 246 251 251 251 255 260 263 268 276 281 284 290 298 298 282 267 267 262 264 267 274 274 274 269 260 252 248 247 251 253
Height
10743 10753 10759 10753 10753 10760 10765 10761 10758 10757 10753 10751 10749 10747 10743 10736 10731 10726 10719 10712 10708 10704 10698 10695 10691 10686 10679 10672 10666 10660 10654 10649 10646 10641 10637 10633 10630 10626 10623 10617 10612 10605 10598 10592
10737 10752 10738 10738 10748 10750 10748 10747 10747 10748 10746 10741 10741 10738 10734 10729 10725 10719 10712 10706 10700 10696 10692 10689 10685 10679 10673 10666 10660 10655 10650 10645 10642 10638 10634 10631 10630 10626 10622 10617 10610 10605 10598 10593
10727 10726 10729 10734 10739 10738 10737 10737 10738 10740 10738 10736 10736 10732 10727 10724 10720 10713 10708 10700 10695 10690 10687 10683 10677 10672 10667 10660 10654 10651 10646 10642 10639 10636 10632 10630 10628 10625 10623 10618 10610 10605 10599 10593
10716 10711 10718 10722 10726 10724 10726 10728 10729 10730 10729 10729 10731 10726 10723 10719 10714 10708 10701 10695 10687 10685 10680 10675 10671 10667 10662 10655 10652 10647 10642 10639 10636 10633 10630 10629 10627 10625 10622 10617 10612 10604 10600 10594
10704 10700 10707 10712 10715 10715 10720 10718 10722 10721 10722 10722 10723 10723 10718 10714 10708 10703 10697 10691 10685 10681 10675 10670 10665 10661 10657 10652 10649 10644 10639 10637 10635 10633 10630 10628 10626 10625 10623 10618 10612 10606 10600 10595
10688 10689 10696 10698 10700 10705 10709 10710 10711 10715 10715 10715 10716 10717 10711 10707 10703 10697 10691 10688 10680 10675 10669 10664 10661 10657 10653 10649 10645 10641 10637 10635 10634 10633 10630 10629 10629 10627 10624 10619 10614 10608 10601 10596
10665 10673 10678 10682 10693 10698 10697 10700 10705 10708 10707 10709 10711 10710 10707 10703 10696 10690 10687 10682 10675 10669 10665 10661 10657 10653 10650 10646 10643 10639 10635 10634 10633 10633 10631 10630 10629 10627 10625 10620 10615 10610 10603 10598
10660 10667 10675 10676 10681 10682 10689 10694 10698 10698 10702 10705 10704 10703 10703 10698 10693 10689 10683 10677 10670 10666 10662 10658 10654 10650 10647 10644 10641 10637 10635 10634 10633 10632 10631 10632 10631 10631 10627 10623 10617 10610 10606 10602
10644 10655 10652 10661 10667 10673 10680 10685 10686 10693 10696 10699 10698 10699 10699 10696 10691 10686 10680 10675 10667 10663 10659 10656 10652 10648 10646 10643 10640 10636 10634 10633 10633 10633 10632 10634 10633 10633 10631 10627 10620 10614 10610 10606
10635 10637 10644 10649 10654 10665 10673 10675 10682 10686 10691 10693 10692 10692 10693 10689 10686 10684 10678 10671 10665 10661 10656 10653 10650 10648 10646 10643 10639 10636 10634 10633 10633 10634 10633 10635 10635 10636 10635 10631 10626 10618 10613 10611
10617 10624 10633 10636 10655 10661 10667 10672 10674 10678 10685 10686 10687 10688 10688 10685 10684 10679 10673 10667 10663 10660 10656 10653 10650 10648 10645 10643 10640 10637 10634 10633 10633 10634 10635 10637 10636 10638 10637 10635 10631 10625 10619 10615
10608 10619 10620 10638 10646 10649 10653 10660 10667 10674 10677 10680 10683 10681 10683 10680 10679 10676 10671 10668 10662 10659 10656 10653 10650 10647 10645 10643 10640 10638 10635 10634 10633 10634 10636 10637 10638 10640 10640 10639 10636 10631 10625 10621
10595 10599 10615 10623 10631 10639 10648 10656 10663 10666 10670 10676 10674 10676 10680 10677 10676 10673 10670 10666 10661 10658 10655 10652 10650 10647 10646 10643 10641 10638 10636 10635 10634 10635 10637 10639 10641 10642 10643 10643 10639 10637 10632 10628
10574 10586 10604 10617 10627 10635 10640 10650 10652 10655 10663 10668 10669 10670 10673 10674 10671 10669 10667 10664 10661 10657 10655 10651 10649 10647 10646 10644 10641 10638 10637 10635 10635 10636 10637 10639 10642 10643 10646 10646 10645 10642 10639 10635
10557 10573 10599 10606 10611 10623 10632 10638 10643 10652 10659 10663 10661 10665 10668 10669 10669 10667 10665 10664 10660 10656 10653 10650 10648 10648 10646 10644 10641 10639 10637 10635 10636 10636 10638 10640 10642 10645 10647 10647 10649 10648 10645 10641
10540 10563 10581 10592 10601 10611 10623 10632 10637 10644 10653 10656 10655 10660 10661 10663 10665 10667 10662 10660 10658 10655 10651 10649 10648 10647 10646 10644 10641 10639 10637 10636 10636 10635 10637 10640 10643 10646 10648 10649 10650 10652 10651 10649
10534 10560 10569 10585 10592 10598 10613 10623 10632 10638 10643 10648 10650 10651 10658 10659 10657 10657 10660 10658 10655 10652 10649 10648 10647 10646 10645 10644 10641 10640 10638 10636 10636 10636 10635 10638 10642 10645 10648 10649 10651 10652 10653 10654
10535 10555 10557 10573 10576 10587 10608 10618 10622 10628 10635 10640 10645 10646 10653 10654 10655 10653 10655 10656 10654 10650 10648 10647 10646 10645 10643 10643 10642 10640 10639 10638 10637 10637 10635 10637 10640 10644 10646 10649 10651 10652 10654 10656
10528 10546 10545 10557 10571 10583 10591 10604 10610 10617 10628 10633 10637 10640 10644 10650 10651 10649 10652 10652 10650 10650 10648 10645 10644 10643 10642 10641 10641 10640 10639 10638 10638 10637 10637 10638 10640 10643 10646 10648 10650 10652 10653 10656
10517 10528 10528 10542 10555 10568 10584 10592 10598 10610 10618 10623 10630 10635 10636 10644 10647 10643 10649 10649 10648 10647 10647 10644 10642 10641 10640 10640 10639 10639 10639 10638 10638 10638 10639 10639 10640 10642 10644 10646 10648 10650 10652 10654
10495 10506 10511 10527 10541 10550 10570 10579 10583 10599 10611 10613 10622 10625 10626 10637 10640 10640 10645 10643 10647 10643 10643 10644 10640 10638 10638 10639 10638 10637 10638 10638 10638 10639 10639 10640 10641 10641 10642 10644 10647 10649 10651 10653
10467 10489 10498 10513 10524 10534 10559 10565 10573 10588 10592 10604 10612 10617 10618 10628 10631 10634 10638 10638 10641 10641 10639 10641 10640 10637 10635 10636 10636 10636 10637 10637 10637 10638 10639 10639 10641 10642 10643 10643 10645 10647 10648 10651
10458 10467 10480 10497 10515 10526 10538 10553 10552 10572 10580 10591 10601 10608 10610 10617 10623 10627 10631 10632 10636 10637 10635 10636 10637 10635 10633 10633 10633 10633 10634 10635 10636 10637 10638 10638 10639 10641 10643 10644 10645 10646 10647 10648
10437 10456 10473 10474 10488 10500 10526 10540 10544 10559 10569 10579 10590 10598 10601 10607 10615 10620 10622 10627 10630 10631 10631 10631 10633 10633 10631 10630 10631 10629 10631 10633 10634 10634 10635 10636 10637 10638 10640 10642 10643 10644 10646 10648
10413 10426 10451 10484 10479 10484 10507 10523 10529 10540 10557 10569 10580 10589 10591 10596 10606 10612 10615 10619 10622 10624 10626 10626 10627 10629 10629 10627 10626 10625 10627 10629 10631 10631 10632 10632 10634 10635 10636 10637 10639 10641 10643 10644
10387 10415 10436 10455 10457 10477 10496 10500 10519 10528 10546 10561 10567 10576 10581 10585 10594 10601 10609 10611 10614 10617 10620 10620 10622 10623 10624 10624 10623 10622 10622 10625 10626 10628 10629 10629 10630 10632 10632 10633 10634 10637 10639 10640